Dewpoint
68 70 70 70 71 71 70 70 69 70 70 70 70 69 69 69 69 68 68 67 67 68 67 67 68 67 67 67 68 68 68 67 66 66 66 65 65 65 65 66 66 65 66
68 71 70 70 70 71 70 70 70 70 70 70 70 69 68 68 68 67 67 67 67 67 66 66 66 67 67 67 68 67 67 66 66 66 65 65 65 65 65 65 65 65 65
68 71 70 70 70 70 70 70 70 70 70 70 69 69 68 68 67 66 66 67 67 66 65 65 66 66 66 67 67 66 66 65 65 65 64 63 63 64 63 63 63 63 63
67 70 71 70 70 70 70 70 70 70 70 69 68 68 68 68 69 69 68 67 67 65 63 63 65 65 66 66 65 65 64 64 64 63 62 62 62 62 61 61 60 60 60
67 69 71 70 70 70 70 70 70 70 70 69 68 68 68 69 69 69 68 67 67 66 65 64 64 65 66 65 65 64 63 62 62 61 60 61 60 60 59 58 58 58 58
66 68 70 70 70 70 70 70 70 70 70 69 68 69 69 69 68 68 68 67 66 66 65 64 65 66 65 64 64 62 62 61 60 60 60 59 58 57 57 56 57 55 56
65 67 69 70 70 70 70 70 70 69 69 69 69 69 69 68 68 67 66 66 65 66 65 64 65 65 64 63 61 61 60 59 57 58 57 58 57 56 55 55 55 55 54
65 66 68 69 70 69 68 68 69 69 69 69 69 69 68 68 67 66 66 65 66 65 64 64 63 63 60 58 60 59 58 56 55 55 55 57 57 57 55 56 56 54 54
66 65 66 67 68 67 67 66 66 67 66 66 64 66 67 67 66 66 66 66 65 64 64 64 63 60 57 59 59 58 57 55 54 54 54 55 55 54 55 54 54 54 54
63 65 65 65 65 65 65 65 64 65 64 63 63 62 64 65 65 65 65 65 64 64 63 63 61 58 58 59 58 58 57 55 54 53 52 53 54 54 54 54 54 54 54
63 63 64 64 64 64 63 64 64 63 64 63 62 61 60 63 63 65 64 64 64 63 63 62 59 57 58 59 58 58 55 54 54 54 55 55 54 54 53 53 53 54 54
61 62 63 64 64 63 63 62 62 62 62 61 61 61 59 63 64 64 64 64 63 62 62 60 58 56 54 54 56 55 53 53 54 54 55 56 54 54 54 54 53 53 53
60 61 62 63 64 64 62 62 60 60 60 60 60 59 60 63 63 64 63 63 62 61 60 58 56 51 51 51 52 53 53 53 54 54 55 56 54 54 54 54 53 53 53
61 61 62 63 63 63 62 61 60 59 59 60 60 59 61 63 63 62 61 61 61 59 58 56 53 50 49 51 52 53 53 53 54 54 55 55 55 54 54 53 53 53 53
60 61 62 62 63 63 62 61 60 59 60 59 62 60 62 62 62 61 60 60 59 58 56 54 51 48 48 52 53 52 52 53 54 54 55 56 55 54 53 53 53 52 52
60 60 61 62 62 62 62 61 60 62 61 61 63 62 62 62 61 60 59 58 57 56 55 52 50 46 48 50 52 52 52 53 54 55 55 55 55 55 54 53 53 52 52
59 59 60 61 62 62 61 61 61 61 61 62 62 62 62 62 60 59 56 55 55 54 51 50 51 48 47 50 52 52 53 53 54 54 54 55 55 55 55 54 53 53 52
58 58 60 61 61 61 61 61 61 60 59 60 60 60 61 61 60 57 54 53 52 51 48 50 51 49 47 51 52 52 53 53 53 54 53 54 54 54 54 55 55 54 53
58 58 60 61 60 60 60 61 60 59 58 59 59 59 60 60 59 56 53 53 51 50 47 50 51 50 48 51 51 52 53 53 53 53 53 53 54 54 54 55 55 55 55
58 58 59 60 60 60 60 60 60 59 58 58 58 58 59 58 59 58 54 56 51 49 49 51 51 50 50 50 50 51 52 52 53 53 53 53 53 53 54 54 55 54 54
57 57 58 58 59 59 59 58 58 58 58 58 58 57 58 57 58 59 56 55 55 53 52 51 50 49 50 50 49 48 50 52 52 52 53 53 53 53 53 53 54 54 54
56 56 56 58 58 58 58 58 58 58 58 58 58 57 57 57 56 57 58 55 56 55 53 51 49 48 49 49 47 47 45 46 49 50 52 52 52 53 53 53 53 54 54
56 56 56 57 57 57 57 57 57 57 57 56 57 57 58 57 55 54 56 54 55 55 52 50 49 47 47 48 47 46 42 43 43 45 48 51 52 52 52 53 53 53 54
56 56 56 56 56 56 57 56 56 54 54 55 56 56 57 56 54 53 54 53 54 54 53 51 49 47 47 47 46 45 45 43 41 40 45 46 48 51 52 53 53 54 54
56 56 56 56 56 56 56 56 56 55 55 55 56 55 56 56 53 52 52 53 52 53 54 53 50 47 47 47 45 45 46 49 50 47 44 44 47 47 48 51 54 54 55
56 56 56 55 55 56 56 56 55 54 53 53 54 54 54 53 52 52 51 52 52 52 54 54 51 46 46 46 48 45 44 44 47 48 47 46 45 45 47 48 49 53 54
Wind_Speed
8 13 17 15 13 14 16 18 19 20 23 24 25 26 27 27 26 26 26 25 25 26 27 27 26 25 26 28 28 26 27 27 27 27 27 28 28 28 28 26 25 23 27
17 15 17 16 14 15 17 14 16 19 23 26 26 26 25 26 25 24 24 25 26 26 27 26 26 26 28 30 28 27 27 26 27 27 27 26 25 26 26 26 25 25 27
17 16 19 18 16 16 18 20 16 19 21 23 25 26 27 26 27 26 25 25 26 26 27 26 26 26 29 29 29 28 27 27 27 25 26 19 21 23 24 24 23 24 25
18 17 17 20 19 18 17 21 22 19 21 23 23 25 27 27 26 26 25 26 26 24 24 26 27 27 30 29 29 28 27 26 26 22 20 19 19 23 23 23 22 21 22
16 17 18 23 22 21 19 19 23 25 23 22 23 24 25 26 26 26 24 23 25 27 25 27 29 30 27 27 27 26 26 26 25 21 20 17 17 21 23 22 22 21 21
14 16 21 25 23 23 22 21 23 25 26 25 24 24 25 25 27 25 25 24 25 26 27 27 29 27 26 25 26 25 26 26 24 21 18 20 18 20 22 22 22 21 20
11 15 19 26 25 24 24 24 23 24 26 26 26 26 28 27 26 25 26 23 24 23 24 26 22 22 21 21 21 26 24 24 22 19 16 18 17 20 21 21 21 21 20
12 11 15 15 24 26 26 28 27 27 27 26 26 27 30 32 28 26 25 25 23 24 23 21 19 21 20 18 23 27 25 23 19 19 16 15 20 21 21 22 21 20 20
14 13 13 13 11 7 17 24 20 23 28 19 16 18 21 27 29 26 26 27 25 23 20 18 20 21 19 20 29 28 24 22 18 17 17 15 21 21 21 22 21 20 19
12 13 13 12 6 9 11 20 22 25 17 21 18 15 5 20 24 25 26 30 27 22 17 19 20 19 19 29 29 26 23 21 17 16 15 16 22 22 22 22 21 20 19
9 8 8 9 12 12 14 18 24 27 28 21 19 16 4 12 20 22 20 25 27 22 17 17 21 20 23 27 28 27 21 15 18 15 12 21 23 23 22 21 19 19 18
12 8 7 10 13 14 12 13 14 18 17 22 20 22 9 10 13 17 20 24 24 24 16 17 18 20 20 19 18 18 15 16 17 15 12 19 22 22 22 21 19 18 18
14 9 10 11 14 16 13 10 9 9 12 11 18 27 20 18 19 17 17 17 18 20 14 14 15 14 17 14 16 14 15 15 16 14 16 19 21 22 21 19 18 18 17
16 12 12 12 14 14 12 13 13 11 10 11 14 20 21 18 21 16 16 16 15 13 14 15 13 14 16 15 18 17 15 15 13 12 16 19 19 21 22 19 17 17 17
16 15 16 14 12 14 14 13 13 12 11 13 16 19 19 24 20 17 16 15 15 15 15 16 14 11 14 16 18 18 15 14 14 13 13 20 19 20 20 20 17 16 15
16 13 16 16 12 13 13 12 11 11 12 13 14 23 25 24 21 19 18 16 16 17 14 14 15 14 11 13 17 18 17 15 14 14 13 17 18 17 18 19 18 17 16
18 15 14 16 15 13 13 13 11 12 10 10 14 17 19 21 21 20 17 16 15 16 20 15 12 13 11 11 17 15 15 15 15 14 15 14 15 17 16 18 18 17 16
20 17 13 12 15 13 13 12 11 13 10 8 13 17 14 19 22 20 18 18 17 16 17 16 15 13 12 13 13 14 14 13 15 15 15 16 16 14 16 16 16 18 18
23 21 16 13 15 15 15 13 12 13 13 11 12 17 16 19 20 19 19 17 20 18 16 15 12 13 13 13 16 14 14 13 14 14 14 15 18 16 14 19 20 19 18
22 20 19 13 15 15 13 13 11 13 13 12 15 17 17 17 19 17 16 16 20 20 18 15 15 12 13 16 14 15 15 13 14 15 16 14 14 15 15 16 16 17 20
20 21 21 18 15 15 14 15 13 17 15 13 13 16 18 14 15 17 17 18 17 19 20 20 12 21 16 14 13 10 8 11 16 16 15 15 15 15 15 15 14 13 16
25 22 22 20 18 14 14 11 6 10 10 15 14 13 16 16 15 17 17 18 17 16 17 18 19 11 9 16 11 9 7 5 11 12 13 15 19 16 17 17 16 17 15
25 25 23 23 19 15 12 10 7 7 7 10 15 16 16 11 15 16 19 17 19 16 19 18 19 19 16 12 15 8 4 7 6 7 17 15 16 17 18 19 19 19 19
23 22 23 23 21 15 13 13 16 16 12 12 15 17 19 14 13 14 18 18 16 15 17 18 13 20 17 21 8 8 6 7 7 6 6 16 17 19 20 17 19 20 20
23 23 22 23 23 19 17 17 16 13 13 12 14 20 19 14 14 13 17 19 16 13 13 11 10 17 18 18 12 13 8 6 4 4 6 9 8 16 16 19 19 18 20
20 21 22 24 24 23 18 19 21 18 15 17 16 18 19 18 15 14 17 17 16 14 17 21 24 19 20 19 19 15 16 10 10 6 6 6 11 11 19 18 19 20 20
Wind_Direction
178 165 165 162 153 136 128 127 123 120 117 115 113 114 116 120 124 127 127 125 125 123 122 118 116 116 117 117 111 108 103 102 103 101 99 97 94 93 90 87 85 87 88
163 166 169 163 156 145 136 128 128 127 126 125 124 123 122 124 126 127 128 130 130 128 126 123 121 122 122 116 110 107 101 103 101 100 99 95 95 93 93 89 88 88 87
159 165 169 164 160 155 148 138 137 132 128 129 130 131 132 132 131 132 134 135 130 130 130 129 127 128 125 118 112 106 105 101 96 94 95 97 94 93 92 90 89 92 94
161 163 167 168 166 163 159 149 142 140 137 135 136 135 136 137 136 135 136 135 133 132 136 137 133 132 126 120 117 115 112 107 102 100 95 96 99 100 97 96 96 96 93
160 163 168 171 169 170 166 159 153 149 146 145 143 142 142 140 137 134 132 133 135 133 137 138 137 132 127 125 121 118 111 104 97 92 94 102 105 109 110 108 103 103 101
165 166 170 170 172 171 170 169 165 159 154 152 149 146 144 142 139 137 134 139 135 135 136 138 136 132 132 126 117 111 111 107 103 102 102 102 101 112 108 105 107 107 107
154 174 174 173 175 176 175 177 173 167 159 157 156 154 153 147 142 141 138 140 139 133 138 140 138 128 124 123 110 117 113 111 104 106 107 103 113 115 114 115 113 111 113
136 153 167 182 181 181 187 187 179 172 163 162 163 162 158 149 147 144 141 139 136 134 140 137 130 117 120 112 125 120 116 112 114 108 104 113 118 120 120 116 111 115 116
133 139 167 184 195 125 202 207 203 193 168 153 61 175 160 151 143 147 139 133 134 134 141 135 129 125 121 115 125 121 121 115 113 118 120 125 130 126 122 119 118 118 119
141 147 155 162 148 115 116 123 125 125 129 132 102 53 67 153 147 145 138 134 136 139 150 138 132 130 113 129 127 121 120 119 120 114 126 137 132 128 125 121 124 125 124
141 151 155 155 142 133 128 130 135 136 159 148 126 106 276 241 153 136 143 137 135 140 150 142 137 127 110 124 124 127 125 131 120 111 121 139 135 131 127 125 130 128 127
164 162 141 142 147 143 140 134 140 154 157 165 156 156 194 223 171 141 144 138 140 137 146 145 139 124 115 119 133 125 133 134 121 123 144 144 137 134 130 133 134 132 129
171 153 141 138 147 148 145 141 138 143 155 173 159 160 168 189 177 142 143 141 143 136 150 150 141 129 125 126 140 134 135 131 130 141 150 148 143 136 135 138 138 133 132
160 155 144 142 145 150 148 154 157 164 158 177 169 176 164 157 151 150 157 149 137 147 158 154 160 142 135 129 132 139 137 138 139 146 152 150 147 145 143 144 141 142 141
157 161 153 147 154 156 161 166 164 172 187 185 183 183 170 152 152 152 158 150 151 152 157 163 158 154 152 139 143 138 140 142 145 149 156 150 151 152 151 149 150 149 150
153 158 152 153 157 158 159 160 161 163 167 181 177 166 159 151 153 160 158 155 160 157 158 165 162 164 168 127 148 146 149 150 153 152 152 153 158 157 158 157 159 158 159
159 155 166 159 159 160 162 156 163 153 155 164 154 148 145 151 154 157 157 156 155 167 160 161 161 170 170 133 153 148 146 158 152 161 153 153 162 162 166 168 166 169 167
151 163 169 155 161 155 154 158 135 142 145 157 162 162 158 161 161 158 160 162 163 167 156 168 174 171 183 139 145 151 155 159 157 166 161 159 165 169 178 178 178 182 181
156 159 160 168 159 156 151 155 153 151 164 166 161 175 178 170 165 158 166 165 162 161 166 176 179 171 184 157 151 149 150 159 168 169 173 174 178 179 182 191 191 194 193
155 158 153 156 160 163 157 160 159 167 176 173 180 181 176 167 165 164 167 165 163 169 172 179 179 176 178 172 144 161 160 170 169 180 184 184 189 191 191 196 201 204 202
155 155 154 162 168 163 170 168 173 176 185 187 190 190 172 165 164 173 175 172 170 173 179 181 169 172 174 167 152 137 166 175 180 188 185 189 195 202 204 206 201 207 211
162 161 160 163 173 175 176 181 173 170 191 194 188 190 179 182 187 179 176 182 180 177 174 177 174 163 169 170 170 160 175 163 215 210 192 190 199 200 210 214 210 210 210
167 165 162 162 166 176 175 158 145 166 159 175 185 179 178 190 191 183 183 177 182 175 179 178 179 170 173 173 169 167 142 211 187 194 211 205 200 202 210 214 215 215 214
172 164 160 159 164 171 171 176 188 200 188 196 186 182 181 197 195 180 171 165 159 169 171 178 178 173 156 181 167 185 183 175 190 214 233 213 210 209 213 212 215 217 216
167 168 163 159 162 169 173 178 184 186 187 170 178 177 177 189 197 182 165 166 155 158 169 180 193 171 164 174 177 184 194 193 159 151 211 226 205 213 215 216 215 216 215
168 166 166 162 164 167 174 176 180 183 184 168 168 166 175 190 188 178 163 169 175 177 177 192 204 180 177 187 202 185 199 197 203 188 211 216 221 235 225 215 207 215 220